Regional Weather Roundup
Issued by NWS

Home | Current Version | Previous Version | Graphics & Text | Print | Product List | Glossary Off
Versions: 1 2 3 4 5 6 7 8 9 10 11 12 13 14 15 16 17 18 19 20 21 22 23 24 25 26 27 28 29 30 31 32 33 34 35 36 37 38 39 40 41 42 43 44 45 46 47 48 49 50

925
ASUS43 KLMK 032010
RWRKY
KENTUCKY REGIONAL WEATHER ROUNDUP
NATIONAL WEATHER SERVICE LOUISVILLE KY
400 PM EDT TUE MAY 03 2016

NOTE "FAIR" INDICATES FEW OR NO CLOUDS BELOW 12,000 FEET
WITH NO SIGNIFICANT WEATHER AND/OR OBSTRUCTIONS TO VISIBILITY.

KYZ001>023-026-027-061>063-070>075-032100-
WESTERN AND SOUTH CENTRAL KENTUCKY

CITY           SKY/WX    TMP DP  RH WIND       PRES   REMARKS
PADUCAH        CLOUDY    63  46  54 NW6       29.98S
HENDERSON      CLOUDY    63  43  48 NW10      29.95S
OWENSBORO      CLOUDY    62  45  53 NW9       29.95F
HOPKINSVILLE   PTSUNNY   63  45  51 NW10      29.95F
BOWLING GREEN  CLOUDY    63  45  51 W8        29.94S
GLASGOW        CLOUDY    61  47  60 W7        29.93F
$$

KYZ024-025-028>034-038-045-046-053-032100-
NORTH CENTRAL KENTUCKY

CITY           SKY/WX    TMP DP  RH WIND       PRES   REMARKS
LOUISVILLE/SDF CLOUDY    63  44  50 NW15      29.90S
LOUISVILLE/LOU CLOUDY    62  45  53 NW12      29.91S
FORT KNOX      PTSUNNY   62  44  51 W13G18    29.90S
$$

KYZ035>037-039>044-047>052-055>060-089>105-032100-
NORTHEAST KENTUCKY

CITY           SKY/WX    TMP DP  RH WIND       PRES   REMARKS
LEXINGTON      CLOUDY    60  46  59 SW8       29.90F
COVINGTON      CLOUDY    59  48  67 NW8       29.88F
FRANKFORT      CLOUDY    62  45  53 W7        29.89F
$$

KYZ054-064>069-076>088-106>120-032100-
SOUTHEAST KENTUCKY

CITY           SKY/WX    TMP DP  RH WIND       PRES   REMARKS
JACKSON        CLOUDY    62  47  57 W12G21    29.88S
LONDON         PTSUNNY   62  46  55 W13       29.89F
SOMERSET       CLOUDY    61  46  59 W9G17     29.93S
MIDDLESBORO    CLOUDY    66  49  55 NW13G18   29.88S
MONTICELLO     CLOUDY    64  49  57 NW15      29.93F
$$





USA.gov is the U.S. government's official web portal to all federal, state and local government web resources and services.